OAL903 LGAL-LGSY

Flight info

Callsign OAL903
Flight time 1h 11m
Altitude 10000
Route LMO G33 KOROS
Aircraft SR22/L-V/N

Departure

Time 2026-04-13 19:22
Airport Alexandroupoli Democritus Airport (LGAL)

Arrival

Time 2026-04-13 20:33
Airport Skiros Airport (LGSY)
Time Latitude Longitude Altitude Speed Heading
2026-04-13 19:09 40.85564 25.94448 15 ft 0 kts 71°
2026-04-13 19:13 40.85566 25.94453 15 ft 0 kts 71°
2026-04-13 19:17 40.85568 25.94478 15 ft 8 kts 108°
2026-04-13 19:17 40.85499 25.94486 15 ft 15 kts 214°
2026-04-13 19:18 40.85406 25.94420 15 ft 10 kts 207°
2026-04-13 19:18 40.85393 25.94411 15 ft 0 kts 200°
2026-04-13 19:20 40.85379 25.94404 15 ft 6 kts 206°
2026-04-13 19:20 40.85322 25.94359 15 ft 11 kts 207°
2026-04-13 19:20 40.85289 25.94394 15 ft 5 kts 72°
2026-04-13 19:21 40.85290 25.94396 15 ft 0 kts 73°
2026-04-13 19:21 40.85305 25.94457 15 ft 35 kts 71°
2026-04-13 19:21 40.85444 25.95055 44 ft 89 kts 71°
2026-04-13 19:22 40.85665 25.95816 347 ft 89 kts 66°
2026-04-13 19:22 40.85883 25.96592 627 ft 89 kts 68°
2026-04-13 19:22 40.86074 25.97355 933 ft 87 kts 88°
2026-04-13 19:22 40.85608 25.97701 1179 ft 101 kts 195°
2026-04-13 19:23 40.84941 25.97848 1558 ft 100 kts 159°
2026-04-13 19:23 40.84237 25.97876 1932 ft 106 kts 199°
2026-04-13 19:23 40.83733 25.97177 2296 ft 112 kts 248°
2026-04-13 19:23 40.83467 25.96174 2574 ft 122 kts 248°
2026-04-13 19:24 40.83183 25.95088 2861 ft 128 kts 250°
2026-04-13 19:24 40.82897 25.93946 3143 ft 133 kts 246°
2026-04-13 19:24 40.82242 25.93132 3422 ft 133 kts 206°
2026-04-13 19:24 40.81422 25.92550 3714 ft 133 kts 208°
2026-04-13 19:25 40.80605 25.91971 4023 ft 133 kts 208°
2026-04-13 19:25 40.79786 25.91402 4326 ft 133 kts 208°
2026-04-13 19:25 40.78965 25.90838 4640 ft 133 kts 209°
2026-04-13 19:25 40.78159 25.90239 4950 ft 133 kts 211°
2026-04-13 19:26 40.77353 25.89639 5247 ft 133 kts 211°
2026-04-13 19:26 40.76544 25.89041 5546 ft 133 kts 211°
2026-04-13 19:26 40.75731 25.88450 5849 ft 134 kts 211°
2026-04-13 19:26 40.74913 25.87861 6152 ft 134 kts 211°
2026-04-13 19:27 40.74094 25.87270 6459 ft 134 kts 213°
2026-04-13 19:27 40.73295 25.86660 6752 ft 135 kts 213°
2026-04-13 19:27 40.72481 25.86040 7036 ft 135 kts 213°
2026-04-13 19:27 40.71663 25.85421 7324 ft 136 kts 213°
2026-04-13 19:28 40.70841 25.84803 7614 ft 137 kts 213°
2026-04-13 19:28 40.70008 25.84180 7904 ft 138 kts 213°
2026-04-13 19:28 40.69169 25.83555 8207 ft 139 kts 213°
2026-04-13 19:28 40.68338 25.82898 8505 ft 140 kts 215°
2026-04-13 19:29 40.67506 25.82232 8808 ft 141 kts 215°
2026-04-13 19:29 40.66664 25.81560 9114 ft 142 kts 215°
2026-04-13 19:29 40.65816 25.80886 9424 ft 143 kts 215°
2026-04-13 19:29 40.64959 25.80208 9732 ft 144 kts 215°
2026-04-13 19:30 40.64094 25.79529 10047 ft 145 kts 215°
2026-04-13 19:30 40.63204 25.78863 10190 ft 157 kts 213°
2026-04-13 19:30 40.62213 25.78109 10205 ft 171 kts 214°
2026-04-13 19:30 40.61160 25.77288 10201 ft 179 kts 215°
2026-04-13 19:31 40.60098 25.76443 10204 ft 178 kts 215°
2026-04-13 19:31 40.59034 25.75590 10207 ft 179 kts 215°
2026-04-13 19:31 40.57969 25.74738 10203 ft 179 kts 215°
2026-04-13 19:31 40.56909 25.73886 10202 ft 179 kts 215°
2026-04-13 19:32 40.55848 25.73033 10203 ft 178 kts 215°
2026-04-13 19:32 40.54789 25.72185 10202 ft 178 kts 215°
2026-04-13 19:32 40.53734 25.71338 10201 ft 178 kts 215°
2026-04-13 19:32 40.52675 25.70491 10202 ft 178 kts 215°
2026-04-13 19:33 40.51626 25.69629 10203 ft 178 kts 216°
2026-04-13 19:33 40.50580 25.68759 10201 ft 178 kts 216°
2026-04-13 19:33 40.49550 25.67902 10198 ft 177 kts 216°
2026-04-13 19:34 40.47465 25.66160 10197 ft 177 kts 216°
2026-04-13 19:34 40.46427 25.65288 10195 ft 177 kts 216°
2026-04-13 19:34 40.45391 25.64416 10191 ft 176 kts 216°
2026-04-13 19:34 40.44370 25.63557 10198 ft 175 kts 216°
2026-04-13 19:35 40.43328 25.62717 10190 ft 176 kts 212°
2026-04-13 19:35 40.42238 25.61983 10185 ft 175 kts 210°
2026-04-13 19:35 40.41167 25.61275 10187 ft 174 kts 210°
2026-04-13 19:35 40.40068 25.60547 10187 ft 175 kts 210°
2026-04-13 19:36 40.38998 25.59830 10190 ft 175 kts 211°
2026-04-13 19:36 40.37909 25.59098 10191 ft 176 kts 211°
2026-04-13 19:36 40.36816 25.58372 10192 ft 176 kts 211°
2026-04-13 19:36 40.35727 25.57632 10187 ft 176 kts 211°
2026-04-13 19:37 40.34643 25.56878 10188 ft 176 kts 211°
2026-04-13 19:37 40.33559 25.56127 10189 ft 176 kts 211°
2026-04-13 19:37 40.32474 25.55374 10184 ft 176 kts 212°
2026-04-13 19:37 40.31402 25.54586 10186 ft 176 kts 213°
2026-04-13 19:38 40.30340 25.53791 10187 ft 176 kts 213°
2026-04-13 19:38 40.29637 25.53259 10189 ft 176 kts 214°
2026-04-13 19:38 40.28587 25.52442 10187 ft 176 kts 214°
2026-04-13 19:38 40.27536 25.51622 10185 ft 175 kts 214°
2026-04-13 19:39 40.26488 25.50804 10189 ft 175 kts 214°
2026-04-13 19:39 40.25439 25.49984 10186 ft 175 kts 214°
2026-04-13 19:39 40.24391 25.49165 10186 ft 175 kts 214°
2026-04-13 19:39 40.23345 25.48348 10186 ft 175 kts 214°
2026-04-13 19:40 40.22296 25.47529 10184 ft 175 kts 214°
2026-04-13 19:40 40.21253 25.46712 10183 ft 175 kts 214°
2026-04-13 19:40 40.20212 25.45895 10186 ft 175 kts 214°
2026-04-13 19:40 40.19168 25.45079 10184 ft 174 kts 214°
2026-04-13 19:41 40.18140 25.44278 10183 ft 174 kts 214°
2026-04-13 19:41 40.17098 25.43463 10185 ft 174 kts 214°
2026-04-13 19:41 40.16059 25.42649 10185 ft 174 kts 214°
2026-04-13 19:42 40.13987 25.41009 10179 ft 174 kts 216°
2026-04-13 19:42 40.12970 25.40162 10181 ft 173 kts 215°
2026-04-13 19:42 40.11949 25.39315 10182 ft 173 kts 216°
2026-04-13 19:42 40.10929 25.38473 10181 ft 173 kts 215°
2026-04-13 19:43 40.09905 25.37644 10180 ft 173 kts 215°
2026-04-13 19:43 40.08879 25.36814 10179 ft 173 kts 215°
2026-04-13 19:43 40.07857 25.35986 10176 ft 173 kts 215°
2026-04-13 19:43 40.06847 25.35165 10177 ft 173 kts 215°
2026-04-13 19:44 40.05824 25.34332 10178 ft 173 kts 215°
2026-04-13 19:44 40.04804 25.33499 10175 ft 173 kts 215°
2026-04-13 19:44 40.03782 25.32663 10177 ft 173 kts 215°
2026-04-13 19:44 40.02753 25.31840 10176 ft 174 kts 213°
2026-04-13 19:45 40.01709 25.31048 10177 ft 174 kts 213°
2026-04-13 19:45 40.00664 25.30257 10177 ft 174 kts 213°
2026-04-13 19:45 39.99617 25.29469 10175 ft 174 kts 212°
2026-04-13 19:45 39.98553 25.28721 10179 ft 174 kts 211°
2026-04-13 19:46 39.97485 25.27978 10178 ft 174 kts 211°
2026-04-13 19:46 39.96420 25.27235 10174 ft 173 kts 211°
2026-04-13 19:46 39.95369 25.26501 10175 ft 174 kts 211°
2026-04-13 19:46 39.94303 25.25759 10175 ft 173 kts 211°
2026-04-13 19:47 39.93239 25.25020 10179 ft 173 kts 211°
2026-04-13 19:47 39.92176 25.24278 10176 ft 173 kts 211°
2026-04-13 19:47 39.91108 25.23546 10177 ft 174 kts 208°
2026-04-13 19:47 39.90000 25.22912 10177 ft 174 kts 206°
2026-04-13 19:48 39.88862 25.22368 10178 ft 176 kts 197°
2026-04-13 19:48 39.87661 25.22052 10179 ft 176 kts 194°
2026-04-13 19:48 39.86457 25.21747 10179 ft 176 kts 194°
2026-04-13 19:48 39.85271 25.21384 10177 ft 175 kts 200°
2026-04-13 19:49 39.84110 25.20907 10175 ft 175 kts 201°
2026-04-13 19:49 39.82954 25.20416 10176 ft 174 kts 201°
2026-04-13 19:49 39.81804 25.19920 10176 ft 174 kts 201°
2026-04-13 19:49 39.80656 25.19426 10183 ft 173 kts 202°
2026-04-13 19:50 39.79513 25.18914 10178 ft 174 kts 201°
2026-04-13 19:50 39.78375 25.18425 10181 ft 174 kts 201°
2026-04-13 19:50 39.77211 25.17987 10182 ft 174 kts 198°
2026-04-13 19:50 39.76039 25.17570 10181 ft 175 kts 198°
2026-04-13 19:51 39.74866 25.17154 10182 ft 174 kts 198°
2026-04-13 19:51 39.73693 25.16737 10180 ft 175 kts 198°
2026-04-13 19:51 39.72522 25.16315 10177 ft 174 kts 199°
2026-04-13 19:51 39.71358 25.15874 10178 ft 175 kts 199°
2026-04-13 19:52 39.70191 25.15430 10177 ft 175 kts 199°
2026-04-13 19:52 39.69026 25.14980 10177 ft 175 kts 199°
2026-04-13 19:52 39.67862 25.14532 10177 ft 175 kts 199°
2026-04-13 19:52 39.66699 25.14085 10173 ft 174 kts 199°
2026-04-13 19:53 39.65533 25.13639 10172 ft 174 kts 199°
2026-04-13 19:53 39.64370 25.13194 10171 ft 174 kts 199°
2026-04-13 19:53 39.63204 25.12746 10173 ft 174 kts 199°
2026-04-13 19:53 39.62041 25.12301 10172 ft 174 kts 199°
2026-04-13 19:54 39.60894 25.11859 10173 ft 174 kts 199°
2026-04-13 19:54 39.59731 25.11407 10173 ft 175 kts 199°
2026-04-13 19:54 39.58563 25.10958 10168 ft 175 kts 199°
2026-04-13 19:54 39.57403 25.10495 10172 ft 174 kts 200°
2026-04-13 19:55 39.56251 25.09995 10172 ft 175 kts 201°
2026-04-13 19:55 39.55106 25.09496 10170 ft 173 kts 201°
2026-04-13 19:55 39.53967 25.08999 10171 ft 172 kts 201°
2026-04-13 19:55 39.52830 25.08500 10171 ft 172 kts 201°
2026-04-13 19:56 39.51693 25.08008 10173 ft 172 kts 200°
2026-04-13 19:56 39.50552 25.07525 10169 ft 172 kts 200°
2026-04-13 19:56 39.49415 25.07048 10167 ft 172 kts 200°
2026-04-13 19:56 39.48278 25.06571 10171 ft 172 kts 200°
2026-04-13 19:57 39.47140 25.06095 10169 ft 172 kts 200°
2026-04-13 19:57 39.46003 25.05622 10169 ft 172 kts 200°
2026-04-13 19:57 39.44868 25.05148 10171 ft 171 kts 200°
2026-04-13 19:57 39.43733 25.04677 10165 ft 171 kts 200°
2026-04-13 19:58 39.42597 25.04204 10164 ft 171 kts 200°
2026-04-13 19:58 39.41455 25.03757 10169 ft 172 kts 197°
2026-04-13 19:58 39.40309 25.03393 10169 ft 172 kts 196°
2026-04-13 19:58 39.39148 25.03026 10168 ft 172 kts 196°
2026-04-13 19:59 39.37986 25.02661 10165 ft 172 kts 196°
2026-04-13 19:59 39.36822 25.02296 10163 ft 172 kts 196°
2026-04-13 19:59 39.35662 25.01932 10163 ft 172 kts 196°
2026-04-13 19:59 39.34501 25.01567 10167 ft 171 kts 196°
2026-04-13 20:00 39.33343 25.01205 10166 ft 171 kts 196°
2026-04-13 20:00 39.32186 25.00843 10164 ft 171 kts 196°
2026-04-13 20:00 39.31034 25.00460 10165 ft 171 kts 198°
2026-04-13 20:00 39.29892 25.00049 10169 ft 171 kts 198°
2026-04-13 20:01 39.28749 24.99637 10168 ft 170 kts 198°
2026-04-13 20:01 39.27629 24.99208 10169 ft 170 kts 199°
2026-04-13 20:01 39.26491 24.98765 10167 ft 170 kts 199°
2026-04-13 20:01 39.25358 24.98325 10167 ft 170 kts 199°
2026-04-13 20:02 39.24224 24.97880 10174 ft 170 kts 200°
2026-04-13 20:02 39.23096 24.97415 10165 ft 170 kts 200°
2026-04-13 20:02 39.21971 24.96950 10165 ft 170 kts 200°
2026-04-13 20:02 39.20847 24.96482 10164 ft 170 kts 200°
2026-04-13 20:03 39.19721 24.96015 10162 ft 170 kts 200°
2026-04-13 20:03 39.18597 24.95549 10166 ft 169 kts 200°
2026-04-13 20:03 39.17479 24.95064 10169 ft 169 kts 201°
2026-04-13 20:03 39.16374 24.94548 10165 ft 169 kts 202°
2026-04-13 20:04 39.15281 24.94036 10169 ft 169 kts 202°
2026-04-13 20:04 39.14182 24.93499 10162 ft 169 kts 204°
2026-04-13 20:04 39.13093 24.92930 10165 ft 168 kts 204°
2026-04-13 20:04 39.11997 24.92389 10165 ft 169 kts 201°
2026-04-13 20:05 39.10875 24.91932 10167 ft 169 kts 198°
2026-04-13 20:05 39.09747 24.91507 10166 ft 169 kts 199°
2026-04-13 20:05 39.08622 24.91064 10164 ft 169 kts 199°
2026-04-13 20:05 39.07496 24.90625 10167 ft 169 kts 199°
2026-04-13 20:06 39.06368 24.90192 10168 ft 169 kts 198°
2026-04-13 20:06 39.05239 24.89759 10165 ft 169 kts 198°
2026-04-13 20:06 39.04107 24.89325 10164 ft 169 kts 199°
2026-04-13 20:06 39.02977 24.88889 10167 ft 170 kts 198°
2026-04-13 20:07 39.01847 24.88452 10167 ft 169 kts 198°
2026-04-13 20:07 39.00718 24.88018 10167 ft 170 kts 198°
2026-04-13 20:07 38.99599 24.87587 10166 ft 170 kts 198°
2026-04-13 20:07 38.98468 24.87151 10166 ft 170 kts 199°
2026-04-13 20:08 38.97334 24.86714 10166 ft 170 kts 198°
2026-04-13 20:08 38.96204 24.86279 10166 ft 170 kts 199°
2026-04-13 20:08 38.95075 24.85844 10161 ft 170 kts 198°
2026-04-13 20:08 38.93945 24.85410 10165 ft 170 kts 198°
2026-04-13 20:09 38.92814 24.84974 10162 ft 170 kts 198°
2026-04-13 20:09 38.91679 24.84541 10164 ft 170 kts 198°
2026-04-13 20:09 38.90544 24.84126 10164 ft 170 kts 197°
2026-04-13 20:09 38.89404 24.83727 10164 ft 170 kts 196°
2026-04-13 20:10 38.88277 24.83347 10161 ft 169 kts 197°
2026-04-13 20:10 38.87341 24.82500 10157 ft 168 kts 237°
2026-04-13 20:10 38.87030 24.81067 10165 ft 169 kts 261°
2026-04-13 20:10 38.86821 24.79589 10168 ft 168 kts 256°
2026-04-13 20:11 38.86838 24.78100 10161 ft 171 kts 281°
2026-04-13 20:11 38.87115 24.76619 10166 ft 171 kts 280°
2026-04-13 20:11 38.87378 24.75127 10074 ft 173 kts 280°
2026-04-13 20:11 38.87736 24.73690 9840 ft 167 kts 294°
2026-04-13 20:12 38.88273 24.72392 9598 ft 163 kts 294°
2026-04-13 20:12 38.88795 24.71118 9356 ft 160 kts 294°
2026-04-13 20:12 38.89307 24.69865 9120 ft 158 kts 294°
2026-04-13 20:12 38.89815 24.68622 8888 ft 156 kts 294°
2026-04-13 20:13 38.90318 24.67390 8660 ft 155 kts 294°
2026-04-13 20:13 38.90820 24.66165 8433 ft 154 kts 294°
2026-04-13 20:13 38.91320 24.64950 8201 ft 153 kts 295°
2026-04-13 20:13 38.91858 24.63769 7981 ft 153 kts 297°
2026-04-13 20:14 38.92403 24.62601 7761 ft 152 kts 297°
2026-04-13 20:14 38.92946 24.61434 7534 ft 152 kts 297°
2026-04-13 20:14 38.93476 24.60266 7329 ft 151 kts 296°
2026-04-13 20:14 38.93986 24.59089 7110 ft 151 kts 294°
2026-04-13 20:15 38.94482 24.57898 6897 ft 151 kts 294°
2026-04-13 20:15 38.94941 24.56683 6684 ft 151 kts 291°
2026-04-13 20:15 38.95387 24.55460 6467 ft 151 kts 291°
2026-04-13 20:15 38.95824 24.54235 6235 ft 151 kts 289°
2026-04-13 20:16 38.96222 24.53042 6172 ft 141 kts 289°
2026-04-13 20:16 38.96600 24.51913 6161 ft 139 kts 288°
2026-04-13 20:16 38.96992 24.50721 6164 ft 150 kts 288°
2026-04-13 20:16 38.97441 24.49476 6168 ft 158 kts 297°
2026-04-13 20:17 38.98211 24.48446 6170 ft 167 kts 328°
2026-04-13 20:17 38.99322 24.47910 6134 ft 174 kts 338°
2026-04-13 20:17 39.00444 24.47405 5906 ft 169 kts 335°
2026-04-13 20:17 39.01521 24.46811 5681 ft 167 kts 333°
2026-04-13 20:18 39.02586 24.46211 5452 ft 167 kts 333°
2026-04-13 20:18 39.03631 24.45575 5223 ft 166 kts 330°
2026-04-13 20:18 39.04639 24.44907 5007 ft 165 kts 330°
2026-04-13 20:18 39.05659 24.44218 4782 ft 165 kts 329°
2026-04-13 20:19 39.06655 24.43477 4548 ft 166 kts 327°
2026-04-13 20:19 39.07654 24.42706 4322 ft 168 kts 327°
2026-04-13 20:19 39.08658 24.41923 4097 ft 169 kts 327°
2026-04-13 20:19 39.09663 24.41133 3874 ft 169 kts 327°
2026-04-13 20:20 39.10688 24.40378 3648 ft 170 kts 332°
2026-04-13 20:20 39.11735 24.39693 3487 ft 166 kts 332°
2026-04-13 20:20 39.12742 24.39028 3363 ft 163 kts 332°
2026-04-13 20:20 39.13750 24.38365 3231 ft 162 kts 332°
2026-04-13 20:21 39.14747 24.37706 3096 ft 160 kts 332°
2026-04-13 20:21 39.15731 24.37050 3000 ft 156 kts 332°
2026-04-13 20:21 39.16699 24.36398 2988 ft 160 kts 332°
2026-04-13 20:21 39.17697 24.35722 2994 ft 164 kts 332°
2026-04-13 20:22 39.18715 24.35031 3007 ft 166 kts 332°
2026-04-13 20:22 39.19747 24.34347 3009 ft 168 kts 334°
2026-04-13 20:22 39.20812 24.33710 3006 ft 169 kts 335°
2026-04-13 20:22 39.21889 24.33070 3006 ft 171 kts 335°
2026-04-13 20:23 39.22973 24.32432 3006 ft 172 kts 337°
2026-04-13 20:23 39.24143 24.32347 2985 ft 171 kts 21°
2026-04-13 20:23 39.25001 24.33307 2986 ft 164 kts 67°
2026-04-13 20:23 39.25308 24.34687 2990 ft 158 kts 90°
2026-04-13 20:24 39.25212 24.36091 2997 ft 158 kts 100°
2026-04-13 20:24 39.25080 24.37476 2994 ft 157 kts 100°
2026-04-13 20:24 39.24847 24.38837 2984 ft 155 kts 121°
2026-04-13 20:24 39.24103 24.39812 2961 ft 153 kts 141°
2026-04-13 20:25 39.23300 24.40671 2782 ft 148 kts 146°
2026-04-13 20:25 39.22351 24.41136 2600 ft 146 kts 162°
2026-04-13 20:25 39.21384 24.41498 2419 ft 144 kts 163°
2026-04-13 20:25 39.20400 24.41765 2238 ft 144 kts 167°
2026-04-13 20:26 39.19414 24.42020 2057 ft 146 kts 166°
2026-04-13 20:26 39.18442 24.42281 2000 ft 141 kts 166°
2026-04-13 20:26 39.17511 24.42562 1990 ft 134 kts 162°
2026-04-13 20:26 39.16621 24.42868 1933 ft 133 kts 163°
2026-04-13 20:27 39.15727 24.43176 1897 ft 129 kts 162°
2026-04-13 20:27 39.14891 24.43469 1891 ft 121 kts 160°
2026-04-13 20:27 39.14362 24.43681 1888 ft 120 kts 160°
2026-04-13 20:27 39.13568 24.44001 1888 ft 119 kts 159°
2026-04-13 20:28 39.12770 24.44316 1889 ft 120 kts 164°
2026-04-13 20:28 39.11954 24.44554 1893 ft 123 kts 165°
2026-04-13 20:28 39.11082 24.44817 1903 ft 133 kts 165°
2026-04-13 20:28 39.10142 24.45058 1903 ft 143 kts 167°
2026-04-13 20:29 39.09210 24.45263 1903 ft 129 kts 168°
2026-04-13 20:29 39.08370 24.45448 1885 ft 118 kts 164°
2026-04-13 20:29 39.07598 24.45721 1885 ft 113 kts 162°
2026-04-13 20:29 39.06847 24.45985 1851 ft 113 kts 162°
2026-04-13 20:30 39.06050 24.46279 1659 ft 125 kts 160°
2026-04-13 20:30 39.05188 24.46600 1467 ft 132 kts 161°
2026-04-13 20:30 39.04294 24.46914 1275 ft 134 kts 162°
2026-04-13 20:30 39.03430 24.47309 1064 ft 132 kts 153°
2026-04-13 20:31 39.02612 24.47749 872 ft 123 kts 156°
2026-04-13 20:31 39.01853 24.48046 827 ft 107 kts 158°
2026-04-13 20:31 39.01204 24.48287 740 ft 94 kts 167°
2026-04-13 20:31 39.00553 24.48386 560 ft 97 kts 166°
2026-04-13 20:32 38.99897 24.48421 466 ft 87 kts 169°
2026-04-13 20:32 38.99270 24.48473 238 ft 89 kts 169°
2026-04-13 20:32 38.98691 24.48558 174 ft 82 kts 164°
2026-04-13 20:32 38.98133 24.48629 74 ft 80 kts 167°
2026-04-13 20:33 38.97610 24.48682 23 ft 68 kts 167°
2026-04-13 20:33 38.97277 24.48703 25 ft 22 kts 177°
2026-04-13 20:33 38.97327 24.48761 24 ft 18 kts 77°
2026-04-13 20:33 38.97332 24.48871 24 ft 8 kts 82°
2026-04-13 20:34 38.97298 24.48888 25 ft 10 kts 179°
2026-04-13 20:34 38.97279 24.48959 26 ft 9 kts 63°
2026-04-13 20:34 38.97345 24.48959 26 ft 13 kts 354°
2026-04-13 20:34 38.97391 24.48963 25 ft 0 kts 287°